Regional Weather Roundup
Issued by NWS Memphis, TN

Home | Current Version | Previous Version | Text Only | Print | Product List | Glossary On
Versions: 1 2 3 4 5 6 7 8 9 10 11 12 13 14 15 16 17 18 19 20 21 22 23 24 25 26 27 28 29 30 31 32 33 34 35 36 37 38 39 40 41 42 43 44 45 46 47 48 49 50
000
ASUS44 KMEG 220300
RWRMEG
MEMPHIS CWA HOURLY WEATHER ROUNDUP
NATIONAL WEATHER SERVICE MEMPHIS TN
1000 PM CDT MON MAY 21 2018

...WEST TENNESSEE...

CITY           SKY/WX    TMP DP  RH WIND       PRES   REMARKS
MEMPHIS INTL   CLOUDY    77  72  84 SE3       30.01F
NWS MEMPHIS      N/A     73 N/A N/A MISG        N/A
JACKSON        FAIR      71  69  93 S5        30.04S


...EASTERN ARKANSAS...

CITY           SKY/WX    TMP DP  RH WIND       PRES   REMARKS
JONESBORO      FAIR      75  73  93 S3        30.02R
WEST MEMPHIS   FAIR      74  74 100 CALM      30.00S FOG
BLYTHEVILLE    FAIR      76  71  85 S5        30.02S
PINE BLUFF     FAIR      74  69  85 SE3       30.00S
MONTICELLO     FAIR      73  70  90 SE3       30.00S


...NORTH MISSISSIPPI...

CITY           SKY/WX    TMP DP  RH WIND       PRES   REMARKS
TUPELO         MOCLDY    78  68  71 SE5       30.03R
CLARKSDALE     CLEAR     75  75 100 CALM      30.01R
GREENWOOD      FAIR      73  70  90 E9        30.01F
STARKVILLE     FAIR      75  68  78 SE3       30.04R


...SOUTHEAST MISSOURI...

CITY           SKY/WX    TMP DP  RH WIND       PRES   REMARKS
KENNETT        FAIR      77  73  88 S5        30.01R
MALDEN         FAIR      75  72  88 CALM      30.03R
WEST PLAINS    CLOUDY    73  69  87 CALM      30.05R
POPLAR BLUFF   FAIR      74  72  93 S3        30.02R
CAPE GIRARDEAU FAIR      71  68  90 S6        30.01R


...NORTHWEST ALABAMA...

CITY           SKY/WX    TMP DP  RH WIND       PRES   REMARKS
MUSCLE SHOALS  FAIR      73  64  73 CALM      30.07R


...MIDDLE TENNESSEE...

CITY           SKY/WX    TMP DP  RH WIND       PRES   REMARKS
NASHVILLE      MOCLDY    77  60  55 S7        30.07R
CLARKSVILLE    LGT RAIN  71  67  87 SW7       30.06R


...WESTERN KENTUCKY...

CITY           SKY/WX    TMP DP  RH WIND       PRES   REMARKS
PADUCAH        FAIR      74  69  85 S6        30.02R


...CENTRAL ARKANSAS...

CITY           SKY/WX    TMP DP  RH WIND       PRES   REMARKS
LITTLE ROCK    CLOUDY    74  72  93 SE5       30.01S


SKY/WX REPORTED AS FAIR MEANS FEW OR NO CLOUDS BELOW
12 THOUSAND FEET.





USA.gov is the U.S. government's official web portal to all federal, state and local government web resources and services.